| time (UTC) | temp C | wind direction | speed KPH | gust KPH | rain 1hr cm | rain 24hr cm | rain mn cm | humidity % | barometer mb |
| 20260506204526 | 17 | 77 | 4.8 | 0.0 | 0.00 | 0.00 | 0.00 | 77 | 1010.4 |
| 20260506203024 | 17 | 355 | 4.8 | 0.0 | 0.00 | 0.00 | 0.00 | 77 | 1010.4 |
| 20260506201524 | 18 | 6 | 4.8 | 0.0 | 0.00 | 0.00 | 0.00 | 76 | 1010.2 |
| 20260506200023 | 18 | 351 | 4.8 | 0.0 | 0.00 | 0.00 | 0.00 | 75 | 1010.1 |
| 20260506194522 | 18 | 289 | 4.8 | 0.0 | 0.00 | 0.00 | 0.00 | 76 | 1010.0 |
| 20260506193021 | 19 | 46 | 4.8 | 0.0 | 0.00 | 0.00 | 0.00 | 76 | 1009.9 |
| 20260506191521 | 20 | 42 | 4.8 | 0.0 | 0.00 | 0.00 | 0.00 | 77 | 1010.0 |
| 20260506190020 | 21 | 279 | 4.8 | 0.0 | 0.00 | 0.00 | 0.00 | 74 | 1010.0 |
| 20260506184537 | 22 | 11 | 3.2 | 0.0 | 0.00 | 0.00 | 0.00 | 75 | 1009.6 |
| 20260506183029 | 22 | 20 | 1.6 | 0.0 | 0.00 | 0.00 | 0.00 | 74 | 1009.5 |
| 20260506181525 | 22 | 133 | 3.2 | 0.0 | 0.00 | 0.00 | 0.00 | 77 | 1009.6 |
| 20260506180017 | 21 | 358 | 3.2 | 0.0 | 0.00 | 0.00 | 0.00 | 77 | 1009.4 |
| 20260506174523 | 21 | 56 | 3.2 | 0.0 | 0.00 | 0.00 | 0.00 | 78 | 1009.2 |
| 20260506173016 | 20 | 58 | 3.2 | 0.0 | 0.00 | 0.00 | 0.00 | 79 | 1009.1 |
| 20260506171518 | 18 | 96 | 3.2 | 0.0 | 0.00 | 0.00 | 0.00 | 82 | 1009.4 |
| 20260506170015 | 18 | 60 | 3.2 | 0.0 | 0.00 | 0.00 | 0.00 | 82 | 1009.5 |
| 20260506164514 | 17 | 80 | 3.2 | 0.0 | 0.00 | 0.00 | 0.00 | 86 | 1009.5 |
| 20260506163014 | 16 | 22 | 3.2 | 0.0 | 0.00 | 0.00 | 0.00 | 86 | 1010.5 |
| 20260506161516 | 16 | 67 | 4.8 | 0.0 | 0.00 | 0.00 | 0.00 | 88 | 1010.3 |
| 20260506160014 | 16 | 41 | 4.8 | 0.0 | 0.00 | 0.00 | 0.00 | 87 | 1011.4 |
| 20260506154507 | 17 | 66 | 4.8 | 0.0 | 0.00 | 0.00 | 0.00 | 87 | 1011.0 |
| 20260506153003 | 18 | 267 | 6.4 | 0.0 | 0.00 | 0.00 | 0.00 | 85 | 1010.5 |
| 20260506151600 | 18 | 347 | 4.8 | 0.0 | 0.00 | 0.00 | 0.00 | 84 | 1010.0 |
| 20260506150100 | 20 | 311 | 3.2 | 0.0 | 0.00 | 0.00 | 0.00 | 82 | 1009.6 |
| 20260506144556 | 23 | 1 | 3.2 | 0.0 | 0.00 | 0.00 | 0.00 | 78 | 1008.4 |
| 20260506143047 | 25 | 101 | 1.6 | 0.0 | 0.00 | 0.00 | 0.00 | 84 | 1007.9 |
| 20260506141548 | 24 | 136 | 0.0 | 0.0 | 0.00 | 0.00 | 0.00 | 88 | 1007.4 |
| 20260506140044 | 23 | 60 | 0.0 | 0.0 | 0.00 | 0.00 | 0.00 | 90 | 1007.6 |
| 20260506134541 | 23 | 185 | 1.6 | 0.0 | 0.00 | 0.00 | 0.00 | 91 | 1007.2 |
| 20260506133042 | 23 | 135 | 1.6 | 0.0 | 0.00 | 0.00 | 0.00 | 91 | 1007.3 |
| 20260506131546 | 22 | 122 | 0.0 | 0.0 | 0.00 | 0.00 | 0.00 | 92 | 1007.1 |
| 20260506130038 | 22 | 146 | 1.6 | 0.0 | 0.00 | 0.00 | 0.00 | 92 | 1006.9 |
| 20260506124538 | 22 | 147 | 1.6 | 0.0 | 0.00 | 0.00 | 0.00 | 92 | 1006.7 |
| 20260506123036 | 22 | 133 | 0.0 | 0.0 | 0.00 | 0.00 | 0.00 | 92 | 1006.6 |
| 20260506121535 | 22 | 126 | 0.0 | 0.0 | 0.00 | 0.00 | 0.00 | 92 | 1006.6 |
| 20260506120039 | 22 | 126 | 0.0 | 0.0 | 0.00 | 0.00 | 0.00 | 92 | 1006.7 |
| 20260506114533 | 22 | 195 | 0.0 | 0.0 | 0.00 | 0.00 | 0.00 | 91 | 1006.5 |
| 20260506113039 | 22 | 195 | 0.0 | 0.0 | 0.00 | 0.00 | 0.00 | 91 | 1006.6 |
| 20260506111532 | 22 | 195 | 0.0 | 0.0 | 0.00 | 0.00 | 0.00 | 91 | 1006.7 |
| 20260506110031 | 22 | 195 | 0.0 | 0.0 | 0.00 | 0.00 | 0.00 | 91 | 1006.6 |
| 20260506104533 | 22 | 195 | 0.0 | 0.0 | 0.00 | 0.00 | 0.00 | 91 | 1006.5 |
| 20260506103027 | 22 | 195 | 0.0 | 0.0 | 0.00 | 0.00 | 0.00 | 90 | 1006.4 |
| 20260506101527 | 23 | 152 | 0.0 | 0.0 | 0.00 | 0.00 | 0.00 | 90 | 1006.3 |
| 20260506100025 | 23 | 237 | 0.0 | 0.0 | 0.00 | 0.00 | 0.00 | 89 | 1006.1 |
| 20260506094524 | 23 | 93 | 0.0 | 0.0 | 0.00 | 0.00 | 0.00 | 89 | 1006.0 |
| 20260506093022 | 23 | 165 | 1.6 | 0.0 | 0.00 | 0.00 | 0.00 | 88 | 1005.8 |
| 20260506091520 | 23 | 80 | 0.0 | 0.0 | 0.00 | 0.00 | 0.00 | 87 | 1005.7 |
| 20260506090023 | 23 | 133 | 1.6 | 0.0 | 0.00 | 0.00 | 0.00 | 87 | 1005.4 |
| 20260506084520 | 23 | 115 | 1.6 | 0.0 | 0.00 | 0.00 | 0.00 | 87 | 1005.5 |
| 20260506083017 | 23 | 258 | 1.6 | 0.0 | 0.00 | 0.00 | 0.00 | 87 | 1005.4 |
| 20260506081519 | 23 | 106 | 3.2 | 0.0 | 0.00 | 0.00 | 0.00 | 86 | 1005.3 |
| 20260506073013 | 23 | 145 | 3.2 | 0.0 | 0.00 | 0.00 | 0.00 | 86 | 1005.7 |
| 20260506071513 | 23 | 147 | 3.2 | 0.0 | 0.00 | 0.00 | 0.00 | 86 | 1005.9 |
| 20260506061510 | 23 | 135 | 4.8 | 0.0 | 0.00 | 0.00 | 0.00 | 86 | 1005.8 |
| 20260506044500 | 24 | 152 | 3.2 | 0.0 | 0.00 | 0.00 | 0.00 | 85 | 1005.7 |
| 20260506043002 | 24 | 116 | 3.2 | 0.0 | 0.00 | 0.00 | 0.00 | 85 | 1005.8 |
| 20260506041605 | 24 | 184 | 3.2 | 0.0 | 0.00 | 0.00 | 0.00 | 85 | 1005.6 |
| 20260506040100 | 24 | 110 | 3.2 | 0.0 | 0.00 | 0.00 | 0.00 | 84 | 1005.6 |
| 20260506034615 | 24 | 174 | 3.2 | 0.0 | 0.00 | 0.00 | 0.00 | 84 | 1005.2 |
| 20260506033059 | 24 | 162 | 3.2 | 0.0 | 0.00 | 0.00 | 0.00 | 83 | 1005.1 |
| 20260506031608 | 25 | 149 | 4.8 | 0.0 | 0.00 | 0.00 | 0.00 | 82 | 1005.0 |
| 20260506030058 | 25 | 144 | 1.6 | 0.0 | 0.00 | 0.00 | 0.00 | 82 | 1004.8 |
| 20260506024618 | 25 | 126 | 1.6 | 0.0 | 0.00 | 0.00 | 0.00 | 81 | 1004.7 |
| 20260506023057 | 25 | 149 | 1.6 | 0.0 | 0.00 | 0.00 | 0.00 | 80 | 1004.3 |
| 20260506021558 | 25 | 132 | 1.6 | 0.0 | 0.00 | 0.00 | 0.00 | 79 | 1004.1 |
| 20260506020058 | 25 | 135 | 1.6 | 0.0 | 0.00 | 0.00 | 0.00 | 79 | 1003.8 |
| 20260506014556 | 25 | 126 | 1.6 | 0.0 | 0.00 | 0.00 | 0.00 | 78 | 1003.7 |
| 20260506013108 | 26 | 145 | 1.6 | 0.0 | 0.00 | 0.00 | 0.00 | 77 | 1003.7 |
| 20260506011607 | 26 | 185 | 1.6 | 0.0 | 0.00 | 0.00 | 0.00 | 76 | 1003.5 |
| 20260506010057 | 26 | 145 | 1.6 | 0.0 | 0.00 | 0.00 | 0.00 | 75 | 1003.5 |
| 20260506004554 | 27 | 226 | 1.6 | 0.0 | 0.00 | 0.00 | 0.00 | 74 | 1003.6 |
| 20260506003053 | 27 | 115 | 1.6 | 0.0 | 0.00 | 0.00 | 0.00 | 73 | 1003.5 |
| 20260506001553 | 27 | 91 | 1.6 | 0.0 | 0.00 | 0.00 | 0.00 | 72 | 1003.7 |
| 20260506000052 | 27 | 141 | 1.6 | 0.0 | 0.00 | 0.00 | 0.00 | 72 | 1003.6 |
| 20260505234552 | 27 | 190 | 1.6 | 0.0 | 0.00 | 0.00 | 0.00 | 72 | 1003.4 |
| 20260505233051 | 27 | 154 | 3.2 | 0.0 | 0.00 | 0.00 | 0.00 | 71 | 1003.3 |
| 20260505231551 | 28 | 122 | 3.2 | 0.0 | 0.00 | 0.00 | 0.00 | 70 | 1003.0 |
| 20260505224550 | 28 | 162 | 4.8 | 0.0 | 0.00 | 0.00 | 0.00 | 69 | 1003.0 |
| 20260505223057 | 28 | 70 | 3.2 | 0.0 | 0.00 | 0.00 | 0.00 | 68 | 1003.0 |
| 20260505221549 | 28 | 125 | 4.8 | 0.0 | 0.00 | 0.00 | 0.00 | 68 | 1003.0 |
| 20260505220048 | 28 | 81 | 4.8 | 0.0 | 0.00 | 0.00 | 0.00 | 68 | 1003.2 |
| 20260505214548 | 29 | 74 | 4.8 | 0.0 | 0.00 | 0.00 | 0.00 | 67 | 1003.3 |
| 20260505213054 | 29 | 205 | 4.8 | 0.0 | 0.00 | 0.00 | 0.00 | 67 | 1003.5 |
| 20260505211542 | 29 | 261 | 3.2 | 0.0 | 0.00 | 0.00 | 0.00 | 67 | 1003.7 |
| 20260505210041 | 29 | 85 | 4.8 | 0.0 | 0.00 | 0.00 | 0.00 | 68 | 1003.7 |